CW2613 Weather Reports


Display with metric or nautical units.
time (UTC)temp
F
wind
direction
speed
MPH
gust
MPH
rain 1hr
in
rain 24hr
in
rain mn
in
humidity
%
barometer
mb
20260905143012 89 174 0.0 0.0 0.00 0.00 0.00 54 1013.5
20260905141508 88 130 0.0 0.0 0.00 0.00 0.00 46 1013.5
20260905140004 87 172 0.0 0.0 0.00 0.00 0.00 36 1013.3
20260905134559 87 187 0.0 0.0 0.00 0.00 0.00 26 1013.4
20260905133055 86 171 0.0 0.0 0.00 0.00 0.00 7 1013.6
20260905131607 84 214 0.0 0.0 0.00 0.00 0.00 1 1013.5
20260905130045 83 163 0.0 0.0 0.00 0.00 0.00 1 1013.4
20260905124541 81 187 0.0 0.0 0.00 0.00 0.00 1 1013.4
20260905123036 79 187 0.0 0.0 0.00 0.00 0.00 1 1013.4
20260905121532 0 0.0 0.0 0.00 0.00 0.00 1013.2
20260905120028 0 0.0 0.0 0.00 0.00 0.00 1013.3
20260905114526 0 0.0 0.0 0.00 0.00 0.00 1013.1
20260905113019 0 0.0 0.0 0.00 0.00 0.00 1012.8
20260905111517 0 0.0 0.0 0.00 0.00 0.00 1012.7
20260905110010 0 0.0 0.0 0.00 0.00 0.00 1012.6
20260905104505 0 0.0 0.0 0.00 0.00 0.00 1012.6
20260905103002 0 0.0 0.0 0.00 0.00 0.00 1012.5
20260905101556 0 0.0 0.0 0.00 0.00 0.00 1012.5
20260905100113 0 0.0 0.0 0.00 0.00 0.00 1012.4
20260905094548 0 0.0 0.0 0.00 0.00 0.00 1012.3
20260905093044 0 0.0 0.0 0.00 0.00 0.00 1012.5
20260905091539 0 0.0 0.0 0.00 0.00 0.00 1012.4
20260905090046 0 0.0 0.0 0.00 0.00 0.00 1012.4
20260905084530 0 0.0 0.0 0.00 0.00 0.00 1012.5
20260905083034 0 0.0 0.0 0.00 0.00 0.00 1012.4
20260905081521 0 0.0 0.0 0.00 0.00 0.00 1012.4
20260905080017 0 0.0 0.0 0.00 0.00 0.00 1012.3
20260905074513 0 0.0 0.0 0.00 0.00 0.00 1012.3
20260905073009 0 0.0 0.0 0.00 0.00 0.00 1012.3
20260905071505 0 0.0 0.0 0.00 0.00 0.00 1012.4
20260905064558 0 0.0 0.0 0.00 0.00 0.00 1012.6
20260905063053 0 0.0 0.0 0.00 0.00 0.00 1012.9
20260905061549 0 0.0 0.0 0.00 0.00 0.00 1013.0
20260905060048 0 0.0 0.0 0.00 0.00 0.00 1013.3
20260905054541 0 0.0 0.0 0.00 0.00 0.00 1013.5
20260905053037 0 0.0 0.0 0.00 0.00 0.00 1013.6
20260905051532 0 0.0 0.0 0.00 0.00 0.00 1013.8
20260905050025 0 0.0 0.0 0.00 0.00 0.00 1013.8
20260905044528 0 0.0 0.0 0.00 0.00 0.00 1013.8
20260905043016 0 0.0 0.0 0.00 0.00 0.00 1013.8
20260905041512 0 0.0 0.0 0.00 0.00 0.00 1013.8
20260905040009 77 191 0.0 0.0 0.00 0.00 0.00 1 1014.1
20260905034510 78 187 0.0 0.0 0.00 0.00 0.00 1 1014.0
20260905033007 78 187 0.0 0.0 0.00 0.00 0.00 1 1014.0
20260905031614 78 187 0.0 0.0 0.00 0.00 0.00 1 1014.0
20260905030055 78 187 0.0 0.0 0.00 0.00 0.00 1 1014.0
20260905024552 78 187 0.0 0.0 0.00 0.00 0.00 1 1014.1
20260905023048 78 187 0.0 0.0 0.00 0.00 0.00 1 1014.0
20260905021542 78 186 0.0 0.0 0.00 0.00 0.00 1 1014.1
20260905020037 78 187 0.0 0.0 0.00 0.00 0.00 1 1014.2
20260905014532 78 187 0.0 0.0 0.00 0.00 0.00 1 1014.0
20260905013034 79 187 0.0 0.0 0.00 0.00 0.00 1 1014.0
20260905011528 79 187 0.0 0.0 0.00 0.00 0.00 1 1013.8
20260905010021 80 187 0.0 0.0 0.00 0.00 0.00 1 1013.8
20260905004516 80 187 0.0 0.0 0.00 0.00 0.00 4 1013.8
20260905003020 81 187 0.0 0.0 0.00 0.00 0.00 16 1013.5
20260905001509 81 187 0.0 0.0 0.00 0.00 0.00 25 1013.4
20260905000002 82 187 0.0 0.0 0.00 0.00 0.00 25 1013.3
20260904234557 83 187 0.0 0.0 0.00 0.00 0.00 36 1013.2
20260904233053 84 187 0.0 0.0 0.00 0.00 0.00 44 1013.1
20260904231552 84 163 0.0 0.0 0.00 0.00 0.00 46 1013.0
20260904230101 85 176 0.0 0.0 0.00 0.00 0.00 52 1012.7
20260904224540 86 235 0.0 0.0 0.00 0.00 0.00 56 1012.6
20260904223046 87 190 0.0 2.0 0.00 0.00 0.00 58 1012.5
20260904221530 88 293 0.0 0.0 0.00 0.00 0.00 57 1012.5
20260904220026 88 118 0.0 1.0 0.00 0.00 0.00 57 1012.5
20260904214522 89 165 0.0 1.0 0.00 0.00 0.00 60 1012.5
20260904213019 89 347 0.0 2.0 0.00 0.00 0.00 61 1012.8
20260904211514 89 203 0.0 2.0 0.00 0.00 0.00 61 1013.0
20260904210018 90 335 0.0 5.0 0.00 0.00 0.00 61 1012.9
20260904204504 92 79 0.0 2.0 0.00 0.00 0.00 61 1013.0
20260904203100 92 307 0.0 6.0 0.00 0.00 0.00 61 1013.0
20260904201558 94 207 0.0 1.0 0.00 0.00 0.00 61 1013.1
20260904200059 94 180 0.0 0.0 0.00 0.00 0.00 59 1013.0
20260904194549 93 176 0.0 0.0 0.00 0.00 0.00 60 1013.1
20260904193042 93 167 0.0 0.0 0.00 0.00 0.00 60 1013.1
20260904191537 94 161 0.0 0.0 0.00 0.00 0.00 59 1013.4
20260904190032 93 170 0.0 0.0 0.00 0.00 0.00 58 1013.9
20260904184546 90 193 0.0 0.0 0.00 0.00 0.00 61 1014.0
20260904183024 89 184 0.0 0.0 0.00 0.00 0.00 59 1014.0
20260904181525 91 149 0.0 0.0 0.00 0.00 0.00 61 1014.2
20260904180013 92 181 0.0 0.0 0.00 0.00 0.00 61 1014.4
20260904174511 89 193 0.0 0.0 0.00 0.00 0.00 60 1014.6
20260904173008 86 158 0.0 0.0 0.00 0.00 0.00 48 1014.6
20260904171605 84 173 0.0 0.0 0.00 0.00 0.00 41 1014.8
20260904170055 84 171 0.0 0.0 0.00 0.00 0.00 50 1015.0
20260904164551 84 195 0.0 0.0 0.00 0.00 0.00 53 1015.3
20260904163053 85 186 0.0 1.0 0.00 0.00 0.00 55 1015.3
20260904161542 90 288 1.0 10.0 0.00 0.00 0.00 60 1015.2
20260904160037 91 167 0.0 0.0 0.00 0.00 0.00 57 1015.0
20260904154532 91 155 0.0 1.0 0.00 0.00 0.00 59 1015.2
20260904153027 90 155 0.0 0.0 0.00 0.00 0.00 58 1015.2
20260904151521 90 203 0.0 0.0 0.00 0.00 0.00 55 1015.3
20260904150018 89 167 0.0 0.0 0.00 0.00 0.00 49 1015.2
20260904144512 88 219 0.0 0.0 0.00 0.00 0.00 46 1015.1